-> Other stations

1455

Speed(max): 4.3(5.9)knots
Direction:262° ( W)
Temperature: 26.7°C
Arrived: 2026-09-03 20:05:21 CEST

Past data:
hh:mmknots
Dir (°)
°C
20:03 4.9 5.9 WSW(255) 26.8
20:01 4.9 7 WSW(258) 27.0
19:59 4.9 7 W(267) 27.0
19:57 4.3 7.6 W(263) 27.0
19:55 4.3 5.9 W(261) 27.1
19:53 5.4 7 W(259) 27.2
19:51 5.4 7 W(263) 27.2
19:49 5.9 8.1 WSW(255) 27.3
19:47 5.9 8.6 W(259) 27.5
19:45 5.4 7.6 W(262) 27.5
19:43 5.4 7.6 W(265) 27.6
19:41 5.4 8.1 WSW(257) 27.7
19:39 4.9 7 W(261) 27.7
19:37 4.9 7 WSW(258) 27.7
15 min. averages:
hh:mmknots
Dir (°)
°C
20:00 5.4 8.6 W(261) 27.2
19:45 5.4 8.1 W(262) 27.8
19:30 4.9 8.1 WSW(256) 28.5
19:15 5.4 8.6 W(268) 29.4
19:00 5.9 10.8 W(276) 29.8
18:45 7 10.8 W(280) 30.3
18:30 5.9 10.3 W(281) 30.4
18:15 6.5 10.8 W(281) 30.4
18:00 7 11.3 WNW(282) 31.5
17:45 7.6 11.3 W(275) 32.3
17:30 8.1 14 WSW(252) 33.1
17:15 9.2 12.4 W(266) 33.1
17:00 8.1 14 W(270) 33.4
16:45 7.6 12.4 WSW(245) 33.7
16:30 7 11.3 WSW(249) 33.4
Stations at HR:
1455
-> Other regions

Desktop view
Data provided by Holfuy.
© Holfuy Weather 2026